Погода в Стеншеве

Польша     52°16′55″N   16°42′13″E
темп.,
°C
ветер,
м/с
пор.,
м/с
влажн.,
%
обл.,
%
осадки,
мм/ч
давл.,
гПа
погр.,
м
1 марта, пн
пн101:00+1зсз359375 0.0 1035128
04:00+1зсз349534 0.0 103584
07:00+1з229632 0.0 103642
10:00+5з238154 0.0 1036426
13:00+7зюз337458 0.0 1036514
16:00+7зюз347634 0.0 1035449
19:00+4зюз338817 0.0 103553
22:00+3з23890 0.0 103538
2 марта, вт
вт201:00+2зюз23900 0.0 103644
04:00+2зюз33910 0.0 103450
07:00+1з33920 0.0 103558
10:00+6зсз35790 0.0 1034293
13:00+11зсз35600 0.0 1034518
16:00+10зсз35630 0.0 1033388
19:00+6сз23740 0.0 103332
22:00+4с12820 0.0 103322
3 марта, ср
ср301:00+3св11830 0.0 103322
04:00+2ю11840 0.0 103122
07:00+2юз11840 0.0 103122
10:00+7ююз23680 0.0 1030255
13:00+12юз34580 0.0 1028534
16:00+12юз36590 0.0 1024468
19:00+7юз35730 0.0 102378
22:00+6зюз410830 0.0 1021202
4 марта, чт
чт401:00+5зюз49900 0.0 1019203
04:00+4зюз410932 0.0 1017230
07:00+4зюз510962 0.0 1016301
10:00+7з6117992 0.0 1014585
13:00+10з796196 0.0 10131092
16:00+10зсз595893 0.0 10111332
19:00+5с587796 0.0 1011500
22:00+4ссз3687100 0.1 1012528
5 марта, пт
пт501:00+1ссв71088100 0.4 1014576
04:000с5978100 0.1 1015789
07:00−1с498073 0.1 1018484
10:00+2с57560 0.0 10201366
13:00+4ссз564711 0.2 10211585
16:00+4ссз4742100 0.9 10222038
19:000сз495987 1.0 1024360
22:00−1з496633 0.0 1026309